Englewood, Florida, United States (34223)
Lat: 26.96N, Lon: 82.35W
Wx Zone: FLZ060
Local Info
Past Weather Observations for Thursday, May 26, 2016

NOTE: This archive is for the closest National Weather Service station to Englewood. Information may differ from the station used for current weather conditions.

Click here for Long-term Archive

Time Weather Temperature Dewpoint Humidity Pressure Winds Precip Visibility
23:53
Clear
68°F / 20°C 63°F / 17°C 83% 30.06 in
(1018 mb)
NE 6.9 mph
(NE 11 kph)
- 10SM
22:53
Clear
70°F / 21°C 63°F / 17°C 78% 30.06 in
(1018 mb)
ENE 6.9 mph
(ENE 11 kph)
- 10SM
21:53
Clear
73°F / 23°C 63°F / 17°C 69% 30.06 in
(1018 mb)
ENE 6.9 mph
(ENE 11 kph)
- 10SM
20:53
Clear
75°F / 24°C 64°F / 18°C 69% 30.06 in
(1018 mb)
E 8.1 mph
(E 13 kph)
- 10SM
19:53
Mostly Cloudy
77°F / 25°C 64°F / 18°C 65% 30.06 in
(1018 mb)
E 9.2 mph
(E 15 kph)
- 10SM
18:53
Mostly Cloudy
81°F / 27°C 64°F / 18°C 58% 30.04 in
(1017 mb)
E 10.4 mph
(E 17 kph)
0.00 in
(0.00 mm)
10SM
17:53
Mostly Cloudy
84°F / 29°C 63°F / 17°C 48% 30.04 in
(1017 mb)
ENE 17.3 mph
(ENE 28 kph)
- 10SM
16:53
Partly Cloudy
88°F / 31°C 61°F / 16°C 40% 30.04 in
(1017 mb)
E 15 mph
(E 24 kph)
- 10SM
15:53
Mostly Cloudy
86°F / 30°C 61°F / 16°C 43% 30.04 in
(1017 mb)
ENE 13.8 mph
(ENE 22 kph)
- 10SM
14:53
Mostly Cloudy
84°F / 29°C 57°F / 14°C 40% 30.06 in
(1018 mb)
ENE 11.5 mph
(ENE 19 kph)
- 10SM
13:53
Partly Cloudy
88°F / 31°C 57°F / 14°C 35% 30.06 in
(1018 mb)
E 10.4 mph
(E 17 kph)
- 10SM
12:53
Partly Cloudy
88°F / 31°C 55°F / 13°C 33% 30.09 in
(1019 mb)
ENE 10.4 mph
(ENE 17 kph)
- 10SM
11:53
Partly Cloudy
86°F / 30°C 55°F / 13°C 35% 30.12 in
(1020 mb)
ENE 12.7 mph
(ENE 20 kph)
- 10SM
10:53
Clear
84°F / 29°C 57°F / 14°C 40% 30.12 in
(1020 mb)
E 8.1 mph
(E 13 kph)
- 10SM
09:53
Clear
81°F / 27°C 59°F / 15°C 48% 30.15 in
(1021 mb)
ENE 8.1 mph
(ENE 13 kph)
- 10SM
08:53
Clear
79°F / 26°C 61°F / 16°C 54% 30.15 in
(1021 mb)
ENE 9.2 mph
(ENE 15 kph)
- 10SM
07:53
Clear
75°F / 24°C 61°F / 16°C 61% 30.15 in
(1021 mb)
NE 6.9 mph
(NE 11 kph)
- 10SM
06:53
Clear
70°F / 21°C 63°F / 17°C 78% 30.15 in
(1021 mb)
NE 3.5 mph
(NE 6 kph)
- 10SM
05:53
Clear
61°F / 16°C 59°F / 15°C 94% 30.12 in
(1020 mb)
E 6.9 mph
(E 11 kph)
- 10SM
04:53
Clear
61°F / 16°C 57°F / 14°C 88% 30.15 in
(1021 mb)
ENE 9.2 mph
(ENE 15 kph)
- 10SM
03:53
Clear
63°F / 17°C 59°F / 15°C 88% 30.15 in
(1021 mb)
NE 4.6 mph
(NE 7 kph)
- 10SM
02:53
Clear
63°F / 17°C 59°F / 15°C 88% 30.15 in
(1021 mb)
NE 8.1 mph
(NE 13 kph)
- 10SM
01:53
Clear
63°F / 17°C 59°F / 15°C 88% 30.15 in
(1021 mb)
ENE 6.9 mph
(ENE 11 kph)
- 10SM
00:53
Clear
66°F / 19°C 61°F / 16°C 83% 30.18 in
(1022 mb)
ENE 6.9 mph
(ENE 11 kph)
- 10SM
Time Weather Temperature Dewpoint Humidity Pressure Winds Precip Visibility


Weather for websites

WeatherForYou.com, LLC is not responsible for any damages or problems caused by this service. Current weather conditions are obtained from the closest station including government and personal stations which may have varying degrees of accuracy. Weather forecasts are derived from the NOAA NDFD. Like all things, this site belongs to Jesus Christ... He just trusts us to maintain it. If you have any questions or comments email webmaster@weatherforyou.com

Copyright © 2016, WeatherForYou.com LLC. All rights reserved.